Time,TemperatureF,DewpointF,PressureIn,WindDirection,WindDirectionDegrees,WindSpeedMPH,WindSpeedGustMPH,Humidity,HourlyPrecipIn,Conditions,Clouds,dailyrainin,SoftwareType,DateUTC
2013-04-13 00:01:00,35.9,32.1,30.05,WSW,249,0.0,0.0,86,0.00,,SKC,0.00,VWS V12.07,2013-04-13 05:01:00,
2013-04-13 00:08:00,35.6,31.8,30.05,WSW,249,0.0,0.0,86,0.00,,SKC,0.00,VWS V12.07,2013-04-13 05:08:00,
2013-04-13 00:14:00,35.5,32.0,30.05,WSW,248,0.0,0.0,87,0.00,,SKC,0.00,VWS V12.07,2013-04-13 05:14:00,
2013-04-13 00:21:00,35.1,31.9,30.05,WSW,249,0.0,0.0,88,0.00,,SKC,0.00,VWS V12.07,2013-04-13 05:21:00,
2013-04-13 00:29:00,35.3,32.1,30.05,West,263,0.0,0.0,88,0.00,,SKC,0.00,VWS V12.07,2013-04-13 05:29:00,
2013-04-13 00:34:00,35.5,32.6,30.05,WNW,284,0.0,0.0,89,0.00,,SKC,0.00,VWS V12.07,2013-04-13 05:34:00,
2013-04-13 00:41:00,35.7,32.5,30.05,WSW,248,0.0,0.0,88,0.00,,SKC,0.00,VWS V12.07,2013-04-13 05:41:00,
2013-04-13 00:48:00,35.6,32.4,30.05,WSW,248,0.0,0.0,88,0.00,,SKC,0.00,VWS V12.07,2013-04-13 05:48:00,
2013-04-13 00:54:00,35.3,32.1,30.05,WSW,247,0.0,0.0,88,0.00,,SKC,0.00,VWS V12.07,2013-04-13 05:54:00,
2013-04-13 01:01:00,35.1,32.2,30.04,WSW,248,0.0,0.0,89,0.00,,SKC,0.00,VWS V12.07,2013-04-13 06:01:00,
2013-04-13 01:08:00,35.3,32.4,30.04,WSW,248,0.0,0.0,89,0.00,,SKC,0.00,VWS V12.07,2013-04-13 06:08:00,
2013-04-13 01:13:00,35.3,32.4,30.04,WSW,246,0.0,0.0,89,0.00,,SKC,0.00,VWS V12.07,2013-04-13 06:13:00,
2013-04-13 01:19:00,35.5,32.6,30.04,WSW,246,0.0,0.0,89,0.00,,SKC,0.00,VWS V12.07,2013-04-13 06:19:00,
2013-04-13 01:26:00,35.4,32.5,30.05,WSW,248,0.0,0.0,89,0.00,,SKC,0.00,VWS V12.07,2013-04-13 06:26:00,
2013-04-13 01:33:00,35.1,32.2,30.04,WSW,246,0.0,0.0,89,0.00,,SKC,0.00,VWS V12.07,2013-04-13 06:33:00,
2013-04-13 01:39:00,34.9,32.3,30.04,WSW,246,0.0,0.0,90,0.00,,SKC,0.00,VWS V12.07,2013-04-13 06:39:00,
2013-04-13 01:46:00,34.9,32.3,30.04,WSW,248,0.0,0.0,90,0.00,,SKC,0.00,VWS V12.07,2013-04-13 06:46:00,
2013-04-13 01:53:00,34.7,32.1,30.04,WSW,256,0.0,0.0,90,0.00,,SKC,0.00,VWS V12.07,2013-04-13 06:53:00,
2013-04-13 01:59:00,34.7,32.1,30.04,West,281,0.0,0.0,90,0.00,,SKC,0.00,VWS V12.07,2013-04-13 06:59:00,
2013-04-13 02:06:00,34.6,32.0,30.04,West,270,0.0,0.0,90,0.00,,SKC,0.00,VWS V12.07,2013-04-13 07:06:00,
2013-04-13 02:13:00,34.3,32.0,30.04,West,271,0.0,0.0,91,0.00,,SKC,0.00,VWS V12.07,2013-04-13 07:13:00,
2013-04-13 02:20:00,34.1,31.8,30.05,West,280,0.0,2.0,91,0.00,,SKC,0.00,VWS V12.07,2013-04-13 07:20:00,
2013-04-13 02:29:00,34.1,32.0,30.05,West,261,0.0,4.0,92,0.00,,SKC,0.00,VWS V12.07,2013-04-13 07:29:00,
2013-04-13 02:36:00,34.3,32.2,30.05,West,262,2.0,4.0,92,0.00,,SKC,0.00,VWS V12.07,2013-04-13 07:36:00,
2013-04-13 02:46:00,34.4,32.0,30.05,West,281,0.0,4.0,91,0.00,,SKC,0.00,VWS V12.07,2013-04-13 07:46:00,
2013-04-13 02:53:00,34.4,32.3,30.04,WNW,287,0.0,4.0,92,0.00,,SKC,0.00,VWS V12.07,2013-04-13 07:53:00,
2013-04-13 02:59:00,34.4,32.3,30.05,West,267,0.0,4.0,92,0.00,,SKC,0.00,VWS V12.07,2013-04-13 07:59:00,
2013-04-13 03:06:00,34.4,32.3,30.05,West,269,1.0,3.0,92,0.00,,SKC,0.00,VWS V12.07,2013-04-13 08:06:00,
2013-04-13 03:16:00,34.5,32.2,30.05,West,277,0.0,3.0,91,0.00,,SKC,0.00,VWS V12.07,2013-04-13 08:16:00,
2013-04-13 03:23:00,34.3,32.0,30.05,West,275,2.0,3.0,91,0.00,,SKC,0.00,VWS V12.07,2013-04-13 08:23:00,
2013-04-13 03:29:00,34.3,32.2,30.05,West,263,0.0,3.0,92,0.00,,SKC,0.00,VWS V12.07,2013-04-13 08:29:00,
2013-04-13 03:39:00,34.4,32.0,30.05,WNW,288,3.0,3.0,91,0.00,,SKC,0.00,VWS V12.07,2013-04-13 08:39:00,
2013-04-13 03:49:00,34.4,32.0,30.04,West,277,0.0,5.0,91,0.00,,SKC,0.00,VWS V12.07,2013-04-13 08:49:00,
2013-04-13 03:59:00,34.3,31.7,30.05,WNW,295,1.0,5.0,90,0.00,,SKC,0.00,VWS V12.07,2013-04-13 08:59:00,
2013-04-13 04:09:00,34.1,31.8,30.06,WNW,285,1.0,3.0,91,0.00,,SKC,0.00,VWS V12.07,2013-04-13 09:09:00,
2013-04-13 04:16:00,34.0,31.6,30.06,WNW,287,2.0,4.0,91,0.00,,SKC,0.00,VWS V12.07,2013-04-13 09:16:00,
2013-04-13 04:23:00,34.1,31.8,30.06,WNW,285,0.0,4.0,91,0.00,,SKC,0.00,VWS V12.07,2013-04-13 09:23:00,
2013-04-13 04:29:00,34.2,31.6,30.06,NW,318,2.0,5.0,90,0.00,,SKC,0.00,VWS V12.07,2013-04-13 09:29:00,
2013-04-13 04:35:00,34.3,31.7,30.06,West,273,1.0,4.0,90,0.00,,SKC,0.00,VWS V12.07,2013-04-13 09:35:00,
2013-04-13 04:41:00,34.3,31.7,30.06,WNW,294,1.0,4.0,90,0.00,,SKC,0.00,VWS V12.07,2013-04-13 09:41:00,
2013-04-13 04:48:00,34.2,31.6,30.07,West,266,3.0,5.0,90,0.00,,SKC,0.00,VWS V12.07,2013-04-13 09:48:00,
2013-04-13 04:54:00,34.3,31.4,30.07,West,271,1.0,5.0,89,0.00,,SKC,0.00,VWS V12.07,2013-04-13 09:54:00,
2013-04-13 05:04:00,34.4,31.5,30.07,WNW,293,5.0,6.0,89,0.00,,SKC,0.00,VWS V12.07,2013-04-13 10:04:00,
2013-04-13 05:14:00,34.4,31.5,30.06,West,273,3.0,6.0,89,0.00,,SKC,0.00,VWS V12.07,2013-04-13 10:14:00,
2013-04-13 05:24:00,34.2,31.3,30.06,WNW,294,2.0,6.0,89,0.00,,SKC,0.00,VWS V12.07,2013-04-13 10:24:00,
2013-04-13 05:34:00,34.1,30.9,30.06,WNW,296,0.0,4.0,88,0.00,,SKC,0.00,VWS V12.07,2013-04-13 10:34:00,
2013-04-13 05:41:00,34.0,31.1,30.06,NW,308,1.0,4.0,89,0.00,,SKC,0.00,VWS V12.07,2013-04-13 10:41:00,
2013-04-13 05:48:00,33.8,30.9,30.05,West,278,3.0,4.0,89,0.00,,SKC,0.00,VWS V12.07,2013-04-13 10:48:00,
2013-04-13 05:54:00,33.7,30.8,30.05,WNW,288,2.0,4.0,89,0.00,,SKC,0.00,VWS V12.07,2013-04-13 10:54:00,
2013-04-13 06:05:00,33.7,30.8,30.05,WNW,293,4.0,6.0,89,0.00,,SKC,0.00,VWS V12.07,2013-04-13 11:05:00,
2013-04-13 06:14:00,33.5,30.6,30.05,WNW,297,1.0,6.0,89,0.00,,SKC,0.00,VWS V12.07,2013-04-13 11:14:00,
2013-04-13 06:22:00,33.3,30.4,30.05,WNW,296,1.0,6.0,89,0.00,,SKC,0.00,VWS V12.07,2013-04-13 11:22:00,
2013-04-13 06:28:00,33.1,30.2,30.05,NNW,328,0.0,6.0,89,0.00,,SKC,0.00,VWS V12.07,2013-04-13 11:28:00,
2013-04-13 06:34:00,33.1,30.2,30.06,WNW,283,0.0,2.0,89,0.00,,SKC,0.00,VWS V12.07,2013-04-13 11:34:00,
2013-04-13 06:41:00,32.9,30.0,30.06,West,269,1.0,2.0,89,0.00,,SKC,0.00,VWS V12.07,2013-04-13 11:41:00,
2013-04-13 06:48:00,32.7,30.1,30.06,WNW,293,2.0,3.0,90,0.00,,SKC,0.00,VWS V12.07,2013-04-13 11:48:00,
2013-04-13 06:54:00,32.9,30.3,30.06,NW,309,1.0,5.0,90,0.00,,SKC,0.00,VWS V12.07,2013-04-13 11:54:00,
2013-04-13 07:02:00,33.4,30.5,30.07,West,280,1.0,5.0,89,0.00,,SKC,0.00,VWS V12.07,2013-04-13 12:02:00,
2013-04-13 07:08:00,33.9,30.7,30.07,WSW,257,1.0,5.0,88,0.00,,SKC,0.00,VWS V12.07,2013-04-13 12:08:00,
2013-04-13 07:14:00,34.1,30.9,30.07,West,268,0.0,5.0,88,0.00,,SKC,0.00,VWS V12.07,2013-04-13 12:14:00,
2013-04-13 07:21:00,34.4,30.9,30.08,West,264,2.0,5.0,87,0.00,,SKC,0.00,VWS V12.07,2013-04-13 12:21:00,
2013-04-13 07:28:00,34.8,31.3,30.08,West,273,2.0,5.0,87,0.00,,SKC,0.00,VWS V12.07,2013-04-13 12:28:00,
2013-04-13 07:35:00,35.1,31.3,30.08,West,277,0.0,3.0,86,0.00,,SKC,0.00,VWS V12.07,2013-04-13 12:35:00,
2013-04-13 07:45:00,35.6,31.5,30.08,NW,316,4.0,7.0,85,0.00,,SKC,0.00,VWS V12.07,2013-04-13 12:45:00,
2013-04-13 07:54:00,36.1,31.1,30.09,WNW,285,5.0,9.0,82,0.00,,SKC,0.00,VWS V12.07,2013-04-13 12:54:00,
2013-04-13 08:02:00,36.6,30.7,30.09,WNW,293,7.0,10.0,79,0.00,,SKC,0.00,VWS V12.07,2013-04-13 13:02:00,
2013-04-13 08:08:00,37.0,30.8,30.08,WNW,302,2.0,10.0,78,0.00,,SKC,0.00,VWS V12.07,2013-04-13 13:08:00,
2013-04-13 08:14:00,37.3,30.4,30.09,WNW,297,6.0,11.0,76,0.00,,SKC,0.00,VWS V12.07,2013-04-13 13:14:00,
2013-04-13 08:21:00,37.7,30.8,30.09,WNW,295,4.0,11.0,76,0.00,,SKC,0.00,VWS V12.07,2013-04-13 13:21:00,
2013-04-13 08:32:00,37.9,30.4,30.09,WNW,302,6.0,6.0,74,0.00,,SKC,0.00,VWS V12.07,2013-04-13 13:32:00,
2013-04-13 08:42:00,38.4,30.2,30.09,NW,308,8.0,13.0,72,0.00,,SKC,0.00,VWS V12.07,2013-04-13 13:42:00,
2013-04-13 08:49:00,38.7,30.1,30.09,NNW,341,3.0,13.0,71,0.00,,SKC,0.00,VWS V12.07,2013-04-13 13:49:00,
2013-04-13 08:55:00,38.9,30.7,30.09,NW,308,9.0,13.0,72,0.00,,SKC,0.00,VWS V12.07,2013-04-13 13:55:00,
2013-04-13 09:02:00,39.3,31.0,30.09,WNW,300,4.0,9.0,72,0.00,,SKC,0.00,VWS V12.07,2013-04-13 14:02:00,
2013-04-13 09:08:00,39.4,31.1,30.09,WNW,297,13.0,13.0,72,0.00,,SKC,0.00,VWS V12.07,2013-04-13 14:08:00,
2013-04-13 09:11:00,39.5,30.9,30.09,WNW,295,10.0,13.0,71,0.00,,SKC,0.00,VWS V12.07,2013-04-13 14:11:00,
2013-04-13 09:15:00,39.5,30.9,30.09,WNW,295,10.0,13.0,71,0.00,,SKC,0.00,VWS V12.07,2013-04-13 14:15:00,
2013-04-13 11:32:00,46.1,32.6,30.09,NW,325,5.0,12.0,59,0.00,,SKC,0.00,VWS V12.07,2013-04-13 16:32:00,
2013-04-13 11:38:00,46.4,33.3,30.09,NW,316,6.0,12.0,60,0.00,,SKC,0.00,VWS V12.07,2013-04-13 16:38:00,
2013-04-13 11:48:00,46.8,32.4,30.09,NE,41,3.0,13.0,57,0.00,,SKC,0.00,VWS V12.07,2013-04-13 16:48:00,
2013-04-13 11:53:00,47.4,33.4,30.09,WNW,300,7.0,13.0,58,0.00,,SKC,0.00,VWS V12.07,2013-04-13 16:53:00,
2013-04-13 12:00:00,47.1,33.5,30.09,West,274,6.0,14.0,59,0.00,,SKC,0.00,VWS V12.07,2013-04-13 17:00:00,
2013-04-13 12:06:00,47.4,35.0,30.08,West,264,8.0,10.0,62,0.00,,SKC,0.00,VWS V12.07,2013-04-13 17:06:00,
2013-04-13 12:13:00,48.2,35.4,30.08,West,262,2.0,10.0,61,0.00,,SKC,0.00,VWS V12.07,2013-04-13 17:13:00,
2013-04-13 12:19:00,48.9,34.8,30.08,WNW,297,7.0,11.0,58,0.00,,SKC,0.00,VWS V12.07,2013-04-13 17:19:00,
2013-04-13 12:26:00,48.8,34.3,30.08,WSW,238,6.0,14.0,57,0.00,,SKC,0.00,VWS V12.07,2013-04-13 17:26:00,
2013-04-13 12:36:00,48.6,34.5,30.08,NW,314,6.0,12.0,58,0.00,,SKC,0.00,VWS V12.07,2013-04-13 17:36:00,
2013-04-13 12:43:00,49.1,35.0,30.07,West,271,2.0,12.0,58,0.00,,SKC,0.00,VWS V12.07,2013-04-13 17:43:00,
2013-04-13 12:53:00,49.6,36.3,30.07,SW,235,2.0,13.0,60,0.00,,SKC,0.00,VWS V12.07,2013-04-13 17:53:00,
2013-04-13 13:03:00,50.2,35.1,30.07,WNW,294,12.0,12.0,56,0.00,,SKC,0.00,VWS V12.07,2013-04-13 18:03:00,
2013-04-13 13:09:00,50.3,35.2,30.06,WNW,284,4.0,14.0,56,0.00,,SKC,0.00,VWS V12.07,2013-04-13 18:09:00,
2013-04-13 13:16:00,50.9,36.2,30.06,NW,305,7.0,16.0,57,0.00,,SKC,0.00,VWS V12.07,2013-04-13 18:16:00,
2013-04-13 13:23:00,50.6,36.4,30.06,NNW,333,6.0,16.0,58,0.00,,SKC,0.00,VWS V12.07,2013-04-13 18:23:00,
2013-04-13 13:29:00,50.7,36.0,30.06,WNW,295,5.0,16.0,57,0.00,,SKC,0.00,VWS V12.07,2013-04-13 18:29:00,
2013-04-13 13:33:00,51.2,36.5,30.06,WNW,294,13.0,16.0,57,0.00,,SKC,0.00,VWS V12.07,2013-04-13 18:33:00,
2013-04-13 13:36:00,50.9,35.8,30.06,NNW,329,8.0,16.0,56,0.00,,SKC,0.00,VWS V12.07,2013-04-13 18:36:00,
2013-04-13 13:43:00,51.4,35.3,30.05,WSW,257,11.0,16.0,54,0.00,,SKC,0.00,VWS V12.07,2013-04-13 18:43:00,
2013-04-13 13:49:00,51.8,36.2,30.05,NW,305,9.0,16.0,55,0.00,,SKC,0.00,VWS V12.07,2013-04-13 18:49:00,
2013-04-13 13:56:00,51.9,35.8,30.05,NW,312,8.0,16.0,54,0.00,,SKC,0.00,VWS V12.07,2013-04-13 18:56:00,
2013-04-13 13:59:00,52.0,36.8,30.05,WNW,295,5.0,16.0,56,0.00,,SKC,0.00,VWS V12.07,2013-04-13 18:59:00,
2013-04-13 14:07:00,52.3,35.7,30.04,West,262,4.0,13.0,53,0.00,,SKC,0.00,VWS V12.07,2013-04-13 19:07:00,
2013-04-13 14:13:00,52.9,36.7,30.04,West,278,4.0,13.0,54,0.00,,SKC,0.00,VWS V12.07,2013-04-13 19:13:00,
2013-04-13 14:19:00,52.9,37.2,30.04,WNW,294,4.0,16.0,55,0.00,,SKC,0.00,VWS V12.07,2013-04-13 19:19:00,
2013-04-13 14:26:00,53.2,36.5,30.04,NW,305,9.0,16.0,53,0.00,,SKC,0.00,VWS V12.07,2013-04-13 19:26:00,
2013-04-13 14:33:00,53.1,36.4,30.03,WNW,299,9.0,12.0,53,0.00,,SKC,0.00,VWS V12.07,2013-04-13 19:33:00,
2013-04-13 14:39:00,53.7,37.9,30.03,WNW,291,4.0,12.0,55,0.00,,SKC,0.00,VWS V12.07,2013-04-13 19:39:00,
2013-04-13 14:46:00,53.8,37.1,30.03,WNW,292,8.0,12.0,53,0.00,,SKC,0.00,VWS V12.07,2013-04-13 19:46:00,
2013-04-13 14:53:00,53.9,36.7,30.03,NW,308,7.0,12.0,52,0.00,,SKC,0.00,VWS V12.07,2013-04-13 19:53:00,
2013-04-13 14:59:00,54.2,37.9,30.03,WSW,252,0.0,12.0,54,0.00,,SKC,0.00,VWS V12.07,2013-04-13 19:59:00,
2013-04-13 15:06:00,55.1,38.3,30.02,SSW,212,2.0,8.0,53,0.00,,SKC,0.00,VWS V12.07,2013-04-13 20:06:00,
2013-04-13 15:14:00,55.5,38.2,30.02,SE,125,1.0,8.0,52,0.00,,SKC,0.00,VWS V12.07,2013-04-13 20:14:00,
2013-04-13 15:20:00,55.4,38.1,30.02,WNW,288,1.0,8.0,52,0.00,,SKC,0.00,VWS V12.07,2013-04-13 20:20:00,
2013-04-13 15:25:00,55.8,38.0,30.01,NW,305,3.0,9.0,51,0.00,,SKC,0.00,VWS V12.07,2013-04-13 20:25:00,
2013-04-13 15:30:00,56.2,38.8,30.01,SSW,210,4.0,9.0,52,0.00,,SKC,0.00,VWS V12.07,2013-04-13 20:30:00,
2013-04-13 15:38:00,57.0,38.6,30.01,South,190,3.0,9.0,50,0.00,,SKC,0.00,VWS V12.07,2013-04-13 20:38:00,
2013-04-13 15:43:00,57.0,38.6,30.01,SE,126,1.0,9.0,50,0.00,,SKC,0.00,VWS V12.07,2013-04-13 20:43:00,
2013-04-13 15:50:00,56.8,37.3,30.00,NW,311,5.0,10.0,48,0.00,,SKC,0.00,VWS V12.07,2013-04-13 20:50:00,
2013-04-13 15:56:00,56.1,37.2,30.00,NW,310,3.0,10.0,49,0.00,,SKC,0.00,VWS V12.07,2013-04-13 20:56:00,
2013-04-13 16:01:00,56.2,37.8,30.00,WNW,288,1.0,1.0,50,0.00,,SKC,0.00,VWS V12.07,2013-04-13 21:01:00,
2013-04-13 16:08:00,56.8,39.9,30.00,WSW,257,1.0,8.0,53,0.00,,SKC,0.00,VWS V12.07,2013-04-13 21:08:00,
2013-04-13 16:14:00,57.1,39.2,30.00,South,188,6.0,9.0,51,0.00,,SKC,0.00,VWS V12.07,2013-04-13 21:14:00,
2013-04-13 16:20:00,56.4,38.0,29.99,SSE,156,3.0,10.0,50,0.00,,SKC,0.00,VWS V12.07,2013-04-13 21:20:00,
2013-04-13 16:25:00,55.9,38.0,29.99,ESE,122,4.0,10.0,51,0.00,,SKC,0.00,VWS V12.07,2013-04-13 21:25:00,
2013-04-13 16:30:00,55.3,38.5,29.99,SE,146,5.0,10.0,53,0.00,,SKC,0.00,VWS V12.07,2013-04-13 21:30:00,
2013-04-13 16:36:00,55.1,38.8,29.99,SE,131,0.0,8.0,54,0.00,,SKC,0.00,VWS V12.07,2013-04-13 21:36:00,
2013-04-13 16:47:00,55.0,38.7,29.99,SW,221,3.0,11.0,54,0.00,,SKC,0.00,VWS V12.07,2013-04-13 21:47:00,
2013-04-13 17:38:00,54.2,39.8,29.98,SSW,207,1.0,4.0,58,0.00,,SKC,0.00,VWS V12.07,2013-04-13 22:38:00,
2013-04-13 17:43:00,54.2,40.2,29.97,SW,229,2.0,4.0,59,0.00,,SKC,0.00,VWS V12.07,2013-04-13 22:43:00,
2013-04-13 17:49:00,54.0,39.6,29.97,SSW,204,2.0,6.0,58,0.00,,SKC,0.00,VWS V12.07,2013-04-13 22:49:00,
2013-04-13 17:56:00,54.0,40.0,29.97,WSW,245,4.0,6.0,59,0.00,,SKC,0.00,VWS V12.07,2013-04-13 22:56:00,
2013-04-13 18:03:00,54.1,39.7,29.97,SW,226,2.0,4.0,58,0.00,,SKC,0.00,VWS V12.07,2013-04-13 23:03:00,
2013-04-13 18:09:00,54.1,40.1,29.97,SSE,165,0.0,4.0,59,0.00,,SKC,0.00,VWS V12.07,2013-04-13 23:09:00,
2013-04-13 18:17:00,54.2,40.2,29.97,SSE,167,0.0,4.0,59,0.00,,SKC,0.00,VWS V12.07,2013-04-13 23:17:00,
2013-04-13 18:23:00,54.3,40.7,29.96,SE,134,1.0,4.0,60,0.00,,SKC,0.00,VWS V12.07,2013-04-13 23:23:00,
2013-04-13 18:29:00,54.3,39.4,29.96,SW,235,1.0,4.0,57,0.00,,SKC,0.00,VWS V12.07,2013-04-13 23:29:00,
2013-04-13 18:36:00,54.2,39.8,29.96,SE,134,0.0,4.0,58,0.00,,SKC,0.00,VWS V12.07,2013-04-13 23:36:00,
2013-04-13 18:43:00,53.9,39.5,29.95,SE,141,3.0,4.0,58,0.00,,SKC,0.00,VWS V12.07,2013-04-13 23:43:00,
2013-04-13 18:49:00,53.7,39.3,29.95,SSE,160,4.0,4.0,58,0.00,,SKC,0.00,VWS V12.07,2013-04-13 23:49:00,
2013-04-13 18:56:00,53.6,39.2,29.95,SE,134,2.0,5.0,58,0.00,,SKC,0.00,VWS V12.07,2013-04-13 23:56:00,
2013-04-13 19:03:00,53.3,39.8,29.94,SE,137,2.0,4.0,60,0.00,,SKC,0.00,VWS V12.07,2013-04-14 00:03:00,
2013-04-13 19:09:00,53.0,39.9,29.94,ESE,116,2.0,4.0,61,0.00,,SKC,0.00,VWS V12.07,2013-04-14 00:09:00,
2013-04-13 19:16:00,52.5,39.9,29.94,SE,124,3.0,4.0,62,0.00,,SKC,0.00,VWS V12.07,2013-04-14 00:16:00,
2013-04-13 19:23:00,52.2,39.2,29.94,East,88,2.0,4.0,61,0.00,,SKC,0.00,VWS V12.07,2013-04-14 00:23:00,
2013-04-13 19:26:00,52.2,39.6,29.94,ESE,118,1.0,4.0,62,0.00,,SKC,0.00,VWS V12.07,2013-04-14 00:26:00,
2013-04-13 19:29:00,52.2,39.6,29.94,ESE,118,1.0,4.0,62,0.00,,SKC,0.00,VWS V12.07,2013-04-14 00:29:00,
2013-04-13 21:01:00,51.6,39.8,29.91,SE,124,3.0,5.0,64,0.00,,SKC,0.00,VWS V12.07,2013-04-14 02:01:00,
2013-04-13 21:06:00,51.7,40.3,29.91,SE,136,3.0,8.0,65,0.00,,SKC,0.00,VWS V12.07,2013-04-14 02:06:00,
2013-04-13 21:13:00,51.7,39.9,29.91,SE,137,2.0,8.0,64,0.00,,SKC,0.00,VWS V12.07,2013-04-14 02:13:00,
2013-04-13 21:19:00,51.6,40.2,29.91,ESE,103,3.0,8.0,65,0.00,,SKC,0.00,VWS V12.07,2013-04-14 02:19:00,
2013-04-13 21:25:00,51.6,39.8,29.91,SE,143,2.0,8.0,64,0.00,,SKC,0.00,VWS V12.07,2013-04-14 02:25:00,
2013-04-13 21:31:00,51.4,40.0,29.91,ESE,120,2.0,5.0,65,0.00,,SKC,0.00,VWS V12.07,2013-04-14 02:31:00,
2013-04-13 21:38:00,51.4,40.0,29.92,SE,126,3.0,6.0,65,0.00,,SKC,0.00,VWS V12.07,2013-04-14 02:38:00,
2013-04-13 21:43:00,51.4,40.0,29.92,SE,131,2.0,6.0,65,0.00,,SKC,0.00,VWS V12.07,2013-04-14 02:43:00,
2013-04-13 21:49:00,51.4,39.7,29.91,SE,131,1.0,7.0,64,0.00,,SKC,0.00,VWS V12.07,2013-04-14 02:49:00,
2013-04-13 21:56:00,51.4,39.7,29.92,East,85,3.0,7.0,64,0.00,,SKC,0.00,VWS V12.07,2013-04-14 02:56:00,
2013-04-13 22:03:00,51.5,39.7,29.92,ESE,114,2.0,4.0,64,0.00,,SKC,0.00,VWS V12.07,2013-04-14 03:03:00,
2013-04-13 22:09:00,51.5,39.7,29.92,East,86,2.0,7.0,64,0.00,,SKC,0.00,VWS V12.07,2013-04-14 03:09:00,
2013-04-13 22:16:00,51.5,39.3,29.92,ESE,120,5.0,9.0,63,0.00,,SKC,0.00,VWS V12.07,2013-04-14 03:16:00,
2013-04-13 22:23:00,51.7,39.5,29.92,ESE,122,5.0,9.0,63,0.00,,SKC,0.00,VWS V12.07,2013-04-14 03:23:00,
2013-04-13 22:28:00,51.8,39.2,29.92,East,93,6.0,12.0,62,0.00,,SKC,0.00,VWS V12.07,2013-04-14 03:28:00,
2013-04-13 22:34:00,51.9,39.3,29.92,ESE,110,7.0,11.0,62,0.00,,SKC,0.00,VWS V12.07,2013-04-14 03:34:00,
2013-04-13 22:40:00,51.8,39.2,29.92,SE,124,3.0,11.0,62,0.00,,SKC,0.00,VWS V12.07,2013-04-14 03:40:00,
2013-04-13 22:49:00,51.7,39.5,29.92,SE,130,4.0,11.0,63,0.00,,SKC,0.00,VWS V12.07,2013-04-14 03:49:00,
2013-04-13 22:56:00,51.8,39.2,29.92,ESE,117,2.0,11.0,62,0.00,,SKC,0.00,VWS V12.07,2013-04-14 03:56:00,
2013-04-13 23:01:00,52.0,39.4,29.91,ESE,108,6.0,12.0,62,0.00,,SKC,0.00,VWS V12.07,2013-04-14 04:01:00,
2013-04-13 23:04:00,52.0,39.4,29.91,ENE,75,7.0,12.0,62,0.00,,SKC,0.00,VWS V12.07,2013-04-14 04:04:00,
2013-04-13 23:08:00,52.0,39.4,29.90,SE,136,5.0,15.0,62,0.00,,SKC,0.00,VWS V12.07,2013-04-14 04:08:00,
2013-04-13 23:14:00,51.9,39.3,29.90,SE,128,4.0,15.0,62,0.00,,SKC,0.00,VWS V12.07,2013-04-14 04:14:00,
2013-04-13 23:18:00,51.9,39.3,29.90,East,94,6.0,15.0,62,0.00,,SKC,0.00,VWS V12.07,2013-04-14 04:18:00,
2013-04-13 23:24:00,51.8,39.6,29.91,SE,125,4.0,15.0,63,0.00,,SKC,0.00,VWS V12.07,2013-04-14 04:24:00,
2013-04-13 23:31:00,51.9,39.3,29.91,SE,124,7.0,7.0,62,0.00,,SKC,0.00,VWS V12.07,2013-04-14 04:31:00,
2013-04-13 23:38:00,51.7,39.5,29.90,SE,130,4.0,10.0,63,0.00,,SKC,0.00,VWS V12.07,2013-04-14 04:38:00,
2013-04-13 23:43:00,51.7,39.5,29.91,SE,126,4.0,10.0,63,0.00,,SKC,0.00,VWS V12.07,2013-04-14 04:43:00,
2013-04-13 23:49:00,51.6,39.4,29.90,SE,142,6.0,10.0,63,0.00,,SKC,0.00,VWS V12.07,2013-04-14 04:49:00,
2013-04-13 23:56:00,51.7,39.5,29.90,ESE,119,5.0,13.0,63,0.00,,SKC,0.00,VWS V12.07,2013-04-14 04:56:00,